Location: Agadir Irigdalene
(31.2522°N, 8.7797°W)
Time: 05:36:47
(UTC+00:00)

Cosmos 1461 - Pass Details

Date: 01 December 2020
Orbit: 501 x 664 km, 65.0° (Epoch: 25 January)

Event Time Altitude Azimuth Distance (km) Brightness Sun altitude
Rises 19:29:53 0° 226° (SW) 2,843 7.4 -24.7°
Reaches altitude 10° 19:32:14 10° 235° (SW) 1,970 6.5 -25.2°
Maximum altitude 19:36:21 36° 302° (WNW) 1,013 4.4 -26.0°
Enters shadow 19:37:47 29° 340° (NNW) 1,182 4.5 -26.3°
